DAL2344 KATL-TNCM

Flight info

Callsign DAL2344
Flight time 3h 19m
Altitude 41000
Route VRSTY3 NOKIE DCT YANTI Q89 MANLE Y185 RENAH Y355 SLUGO
Aircraft A333/H-SDE3GHIJ2J3J5M1RVWXY/LB2D1

Departure

Time 2026-05-08 01:16
Airport Hartsfield Jackson Atlanta International Airport (KATL)

Arrival

Time 2026-05-08 04:35
Airport Princess Juliana International Airport (TNCM)
Time Latitude Longitude Altitude Speed Heading
2026-05-08 00:38 33.63863 -84.42058 1010 ft 0 kts 90°
2026-05-08 01:06 33.63863 -84.42076 1010 ft 3 kts 90°
2026-05-08 01:06 33.63862 -84.42099 1010 ft 3 kts 95°
2026-05-08 01:06 33.63869 -84.42122 1010 ft 3 kts 143°
2026-05-08 01:07 33.63884 -84.42131 1010 ft 1 kts 175°
2026-05-08 01:09 33.63883 -84.42131 1010 ft 0 kts 175°
2026-05-08 01:11 33.63882 -84.42131 1010 ft 0 kts 175°
2026-05-08 01:11 33.63796 -84.42145 1010 ft 17 kts 183°
2026-05-08 01:11 33.63692 -84.42146 1010 ft 5 kts 179°
2026-05-08 01:12 33.63665 -84.42127 1011 ft 3 kts 135°
2026-05-08 01:12 33.63654 -84.42053 1010 ft 23 kts 90°
2026-05-08 01:12 33.63656 -84.41864 1010 ft 20 kts 91°
2026-05-08 01:12 33.63655 -84.41692 1010 ft 21 kts 90°
2026-05-08 01:13 33.63655 -84.41506 1010 ft 23 kts 90°
2026-05-08 01:13 33.63655 -84.41304 1010 ft 25 kts 90°
2026-05-08 01:13 33.63655 -84.41094 1010 ft 24 kts 90°
2026-05-08 01:13 33.63655 -84.40939 1010 ft 17 kts 90°
2026-05-08 01:14 33.63654 -84.40809 1010 ft 13 kts 96°
2026-05-08 01:14 33.63642 -84.40772 1010 ft 6 kts 123°
2026-05-08 01:14 33.63604 -84.40747 1011 ft 7 kts 166°
2026-05-08 01:14 33.63593 -84.40746 1011 ft 0 kts 174°
2026-05-08 01:15 33.63585 -84.40745 1011 ft 2 kts 175°
2026-05-08 01:15 33.63566 -84.40744 1011 ft 13 kts 178°
2026-05-08 01:15 33.63497 -84.40760 1011 ft 5 kts 214°
2026-05-08 01:15 33.63471 -84.40890 1011 ft 27 kts 270°
2026-05-08 01:16 33.63470 -84.41453 1010 ft 111 kts 269°
2026-05-08 01:16 33.63467 -84.42654 1361 ft 163 kts 273°
2026-05-08 01:16 33.63472 -84.44051 2341 ft 161 kts 274°
2026-05-08 01:16 33.63464 -84.45323 3272 ft 153 kts 273°
2026-05-08 01:17 33.63461 -84.46670 3767 ft 170 kts 272°
2026-05-08 01:17 33.63462 -84.48180 4145 ft 193 kts 272°
2026-05-08 01:17 33.63464 -84.49910 4394 ft 224 kts 272°
2026-05-08 01:17 33.63467 -84.51927 4674 ft 257 kts 271°
2026-05-08 01:18 33.63466 -84.54093 5580 ft 261 kts 270°
2026-05-08 01:18 33.63464 -84.56207 7033 ft 245 kts 270°
2026-05-08 01:18 33.63462 -84.58216 8431 ft 237 kts 270°
2026-05-08 01:18 33.63460 -84.60201 9553 ft 240 kts 270°
2026-05-08 01:19 33.63455 -84.62229 10571 ft 243 kts 269°
2026-05-08 01:19 33.63222 -84.64230 11641 ft 244 kts 257°
2026-05-08 01:19 33.62452 -84.66037 12725 ft 253 kts 240°
2026-05-08 01:19 33.61081 -84.67514 13517 ft 278 kts 226°
2026-05-08 01:20 33.59332 -84.68776 13899 ft 311 kts 217°
2026-05-08 01:20 33.57173 -84.69530 13976 ft 331 kts 197°
2026-05-08 01:20 33.54812 -84.69383 14000 ft 339 kts 185°
2026-05-08 01:20 33.52558 -84.68939 14007 ft 330 kts 182°
2026-05-08 01:21 33.50304 -84.68456 14006 ft 326 kts 183°
2026-05-08 01:21 33.48071 -84.67994 14013 ft 325 kts 184°
2026-05-08 01:21 33.45817 -84.67474 14418 ft 338 kts 178°
2026-05-08 01:21 33.43566 -84.66476 15381 ft 353 kts 164°
2026-05-08 01:22 33.41492 -84.64783 16313 ft 373 kts 148°
2026-05-08 01:22 33.39722 -84.62313 16702 ft 409 kts 131°
2026-05-08 01:22 33.38191 -84.59303 16905 ft 435 kts 126°
2026-05-08 01:22 33.36695 -84.56089 17392 ft 447 kts 125°
2026-05-08 01:23 33.35185 -84.52830 18222 ft 448 kts 125°
2026-05-08 01:23 33.33660 -84.49579 18910 ft 449 kts 126°
2026-05-08 01:23 33.32128 -84.46355 19519 ft 454 kts 126°
2026-05-08 01:23 33.30552 -84.43065 20087 ft 458 kts 126°
2026-05-08 01:24 33.28950 -84.39737 20683 ft 462 kts 126°
2026-05-08 01:24 33.27335 -84.36391 21312 ft 466 kts 126°
2026-05-08 01:24 33.25703 -84.33016 21892 ft 470 kts 126°
2026-05-08 01:24 33.24071 -84.29647 22445 ft 475 kts 126°
2026-05-08 01:25 33.22403 -84.26208 23027 ft 478 kts 126°
2026-05-08 01:25 33.20723 -84.22749 23573 ft 482 kts 126°
2026-05-08 01:25 33.19028 -84.19260 24037 ft 486 kts 126°
2026-05-08 01:25 33.17325 -84.15759 24478 ft 490 kts 126°
2026-05-08 01:26 33.15626 -84.12271 24923 ft 493 kts 127°
2026-05-08 01:26 33.13892 -84.08712 25363 ft 497 kts 127°
2026-05-08 01:26 33.12139 -84.05120 25794 ft 500 kts 127°
2026-05-08 01:26 33.10364 -84.01524 26215 ft 502 kts 129°
2026-05-08 01:27 33.08332 -83.98186 26635 ft 495 kts 140°
2026-05-08 01:27 33.05900 -83.95431 27062 ft 484 kts 151°
2026-05-08 01:27 33.03194 -83.93027 27514 ft 481 kts 155°
2026-05-08 01:27 33.00442 -83.90732 27894 ft 484 kts 155°
2026-05-08 01:28 32.97654 -83.88430 28263 ft 488 kts 155°
2026-05-08 01:28 32.94856 -83.86116 28669 ft 492 kts 155°
2026-05-08 01:28 32.92078 -83.83811 29070 ft 495 kts 155°
2026-05-08 01:28 32.89227 -83.81441 29475 ft 498 kts 155°
2026-05-08 01:29 32.86366 -83.79061 29859 ft 501 kts 155°
2026-05-08 01:29 32.83530 -83.76701 30191 ft 504 kts 155°
2026-05-08 01:29 32.80638 -83.74296 30547 ft 506 kts 155°
2026-05-08 01:29 32.77748 -83.71892 30912 ft 508 kts 155°
2026-05-08 01:30 32.74841 -83.69475 31273 ft 509 kts 155°
2026-05-08 01:30 32.71931 -83.67059 31591 ft 511 kts 155°
2026-05-08 01:30 32.69023 -83.64633 32110 ft 509 kts 155°
2026-05-08 01:30 32.66200 -83.62200 32718 ft 505 kts 154°
2026-05-08 01:31 32.63382 -83.59715 33294 ft 502 kts 154°
2026-05-08 01:31 32.60584 -83.57225 33787 ft 500 kts 154°
2026-05-08 01:31 32.57803 -83.54750 34186 ft 500 kts 154°
2026-05-08 01:31 32.55014 -83.52273 34506 ft 500 kts 154°
2026-05-08 01:32 32.52253 -83.49832 34782 ft 501 kts 154°
2026-05-08 01:32 32.49456 -83.47366 35109 ft 501 kts 155°
2026-05-08 01:32 32.46656 -83.44901 35478 ft 500 kts 155°
2026-05-08 01:32 32.43860 -83.42440 35799 ft 499 kts 154°
2026-05-08 01:33 32.41075 -83.39991 36203 ft 497 kts 154°
2026-05-08 01:33 32.38290 -83.37546 36527 ft 497 kts 155°
2026-05-08 01:33 32.35539 -83.35135 36823 ft 498 kts 155°
2026-05-08 01:33 32.32757 -83.32699 37157 ft 498 kts 155°
2026-05-08 01:34 32.29974 -83.30264 37491 ft 498 kts 155°
2026-05-08 01:34 32.27181 -83.27821 37813 ft 497 kts 155°
2026-05-08 01:34 32.24392 -83.25382 38134 ft 497 kts 155°
2026-05-08 01:34 32.21604 -83.22946 38455 ft 497 kts 155°
2026-05-08 01:35 32.18828 -83.20522 38751 ft 496 kts 155°
2026-05-08 01:35 32.16045 -83.18096 38948 ft 496 kts 154°
2026-05-08 01:35 32.13303 -83.15705 39242 ft 494 kts 154°
2026-05-08 01:35 32.10529 -83.13287 39544 ft 493 kts 154°
2026-05-08 01:36 32.07770 -83.10884 39756 ft 492 kts 154°
2026-05-08 01:36 32.05002 -83.08479 39955 ft 493 kts 154°
2026-05-08 01:36 32.02270 -83.06107 40136 ft 494 kts 154°
2026-05-08 01:36 31.99489 -83.03695 40345 ft 494 kts 154°
2026-05-08 01:37 31.96712 -83.01286 40572 ft 494 kts 154°
2026-05-08 01:37 31.93946 -82.98888 40792 ft 494 kts 154°
2026-05-08 01:37 31.91204 -82.96512 40948 ft 494 kts 154°
2026-05-08 01:38 31.85665 -82.91716 40946 ft 492 kts 153°
2026-05-08 01:38 31.80141 -82.86944 40957 ft 492 kts 153°
2026-05-08 01:39 31.74726 -82.82020 40960 ft 496 kts 150°
2026-05-08 01:39 31.69367 -82.76890 40960 ft 497 kts 150°
2026-05-08 01:40 31.63999 -82.71737 40988 ft 497 kts 150°
2026-05-08 01:40 31.58652 -82.66645 40942 ft 497 kts 150°
2026-05-08 01:41 31.53256 -82.61538 40975 ft 497 kts 150°
2026-05-08 01:41 31.47900 -82.56480 40965 ft 497 kts 150°
2026-05-08 01:42 31.42505 -82.51393 40964 ft 497 kts 150°
2026-05-08 01:42 31.37110 -82.46314 40978 ft 497 kts 150°
2026-05-08 01:43 31.31711 -82.41237 40983 ft 497 kts 150°
2026-05-08 01:43 31.26348 -82.36202 40984 ft 496 kts 149°
2026-05-08 01:44 31.20948 -82.31139 40992 ft 495 kts 149°
2026-05-08 01:44 31.15604 -82.26137 40984 ft 495 kts 149°
2026-05-08 01:45 31.10204 -82.21090 40974 ft 495 kts 149°
2026-05-08 01:45 31.04841 -82.16086 40968 ft 495 kts 149°
2026-05-08 01:46 30.99457 -82.11070 40940 ft 495 kts 149°
2026-05-08 01:46 30.94063 -82.06053 40960 ft 495 kts 149°
2026-05-08 01:47 30.88682 -82.01054 40964 ft 495 kts 149°
2026-05-08 01:47 30.83319 -81.96080 40960 ft 495 kts 149°
2026-05-08 01:48 30.75254 -81.88614 40959 ft 495 kts 149°
2026-05-08 01:48 30.69857 -81.83628 40939 ft 495 kts 149°
2026-05-08 01:49 30.64486 -81.78672 40950 ft 494 kts 149°
2026-05-08 01:49 30.58997 -81.73853 40963 ft 490 kts 153°
2026-05-08 01:50 30.53428 -81.69375 40964 ft 489 kts 154°
2026-05-08 01:50 30.47728 -81.64869 40951 ft 500 kts 153°
2026-05-08 01:51 30.41944 -81.60260 40962 ft 511 kts 153°
2026-05-08 01:51 30.36034 -81.55522 40971 ft 521 kts 153°
2026-05-08 01:52 30.30025 -81.50696 40971 ft 528 kts 152°
2026-05-08 01:52 30.24017 -81.45872 40972 ft 528 kts 152°
2026-05-08 01:53 30.17969 -81.41026 40973 ft 528 kts 152°
2026-05-08 01:53 30.11909 -81.36184 40977 ft 528 kts 153°
2026-05-08 01:54 30.05867 -81.31365 40979 ft 526 kts 152°
2026-05-08 01:54 29.99872 -81.26591 40978 ft 526 kts 152°
2026-05-08 01:55 29.93842 -81.21798 40980 ft 525 kts 152°
2026-05-08 01:55 29.87814 -81.17015 40981 ft 525 kts 152°
2026-05-08 01:56 29.81720 -81.12498 40981 ft 517 kts 160°
2026-05-08 01:56 29.75218 -81.09076 40982 ft 511 kts 164°
2026-05-08 01:57 29.68682 -81.05964 40982 ft 509 kts 165°
2026-05-08 01:57 29.62112 -81.02908 40982 ft 509 kts 165°
2026-05-08 01:58 29.55567 -80.99850 40985 ft 509 kts 165°
2026-05-08 01:58 29.49002 -80.96765 40980 ft 508 kts 165°
2026-05-08 01:59 29.42466 -80.93686 40985 ft 506 kts 165°
2026-05-08 01:59 29.35994 -80.90643 40986 ft 505 kts 165°
2026-05-08 02:00 29.29480 -80.87588 40983 ft 505 kts 165°
2026-05-08 02:00 29.22967 -80.84537 40985 ft 505 kts 165°
2026-05-08 02:01 29.16497 -80.81510 40988 ft 504 kts 164°
2026-05-08 02:01 29.10007 -80.78474 40988 ft 497 kts 164°
2026-05-08 02:02 29.03642 -80.75498 40987 ft 497 kts 165°
2026-05-08 02:02 28.97212 -80.72513 40987 ft 504 kts 164°
2026-05-08 02:03 28.91806 -80.69972 40960 ft 506 kts 161°
2026-05-08 02:03 28.85850 -80.65511 40985 ft 521 kts 141°
2026-05-08 02:04 28.81249 -80.59036 40985 ft 529 kts 128°
2026-05-08 02:04 28.77179 -80.52078 40979 ft 530 kts 126°
2026-05-08 02:05 28.73163 -80.44997 40971 ft 531 kts 126°
2026-05-08 02:05 28.69093 -80.37944 40975 ft 531 kts 127°
2026-05-08 02:06 28.64995 -80.31002 40980 ft 530 kts 127°
2026-05-08 02:06 28.60849 -80.24035 40981 ft 530 kts 127°
2026-05-08 02:07 28.56711 -80.17090 40985 ft 528 kts 127°
2026-05-08 02:07 28.52622 -80.10229 41001 ft 526 kts 127°
2026-05-08 02:08 28.48502 -80.03325 41001 ft 526 kts 127°
2026-05-08 02:08 28.44420 -79.96493 41012 ft 526 kts 127°
2026-05-08 02:09 28.42341 -79.93049 40667 ft 524 kts 128°
2026-05-08 02:09 28.40317 -79.89719 41788 ft 503 kts 128°
2026-05-08 02:09 28.38379 -79.86483 42322 ft 491 kts 127°
2026-05-08 02:09 28.36428 -79.83211 41787 ft 508 kts 127°
2026-05-08 02:10 28.34439 -79.79883 41197 ft 521 kts 127°
2026-05-08 02:10 28.32394 -79.76465 41033 ft 526 kts 127°
2026-05-08 02:10 28.28275 -79.69590 41018 ft 526 kts 127°
2026-05-08 02:11 28.24153 -79.62730 41017 ft 524 kts 127°
2026-05-08 02:11 28.20068 -79.55953 41019 ft 522 kts 127°
2026-05-08 02:12 28.15952 -79.49140 41016 ft 522 kts 127°
2026-05-08 02:12 28.11840 -79.42344 41023 ft 522 kts 127°
2026-05-08 02:13 28.07750 -79.35597 41021 ft 523 kts 127°
2026-05-08 02:13 28.03621 -79.28795 41026 ft 523 kts 127°
2026-05-08 02:14 27.99514 -79.22039 41027 ft 523 kts 127°
2026-05-08 02:14 27.95383 -79.15256 41029 ft 523 kts 127°
2026-05-08 02:15 27.91254 -79.08488 41039 ft 521 kts 127°
2026-05-08 02:15 27.87158 -79.01784 41027 ft 520 kts 127°
2026-05-08 02:16 27.83023 -78.95030 41032 ft 520 kts 127°
2026-05-08 02:16 27.78929 -78.88351 41032 ft 520 kts 127°
2026-05-08 02:17 27.74793 -78.81614 41034 ft 520 kts 127°
2026-05-08 02:17 27.70690 -78.74940 41039 ft 520 kts 127°
2026-05-08 02:18 27.66554 -78.68220 41034 ft 520 kts 127°
2026-05-08 02:18 27.62479 -78.61518 41033 ft 520 kts 126°
2026-05-08 02:19 27.58496 -78.54699 41030 ft 520 kts 125°
2026-05-08 02:19 27.54541 -78.47876 41039 ft 518 kts 125°
2026-05-08 02:20 27.50603 -78.41116 41041 ft 518 kts 125°
2026-05-08 02:20 27.46633 -78.34333 41042 ft 518 kts 125°
2026-05-08 02:21 27.42663 -78.27570 41042 ft 518 kts 125°
2026-05-08 02:21 27.38677 -78.20790 41042 ft 518 kts 125°
2026-05-08 02:22 27.34717 -78.14062 41045 ft 518 kts 125°
2026-05-08 02:22 27.30725 -78.07291 41048 ft 518 kts 125°
2026-05-08 02:23 27.26765 -78.00583 41048 ft 518 kts 125°
2026-05-08 02:23 27.22770 -77.93825 41049 ft 518 kts 125°
2026-05-08 02:24 27.18775 -77.87079 41051 ft 518 kts 125°
2026-05-08 02:24 27.14775 -77.80333 41054 ft 518 kts 125°
2026-05-08 02:25 27.10771 -77.73591 41054 ft 518 kts 126°
2026-05-08 02:25 27.06790 -77.66900 41052 ft 518 kts 126°
2026-05-08 02:26 27.02776 -77.60161 41056 ft 518 kts 126°
2026-05-08 02:26 26.98809 -77.53460 41054 ft 519 kts 125°
2026-05-08 02:27 26.94861 -77.46681 41059 ft 519 kts 124°
2026-05-08 02:27 26.90909 -77.39884 41058 ft 519 kts 124°
2026-05-08 02:28 26.86986 -77.33159 41061 ft 517 kts 124°
2026-05-08 02:28 26.83032 -77.26399 41062 ft 517 kts 124°
2026-05-08 02:29 26.79114 -77.19714 41065 ft 517 kts 124°
2026-05-08 02:29 26.75156 -77.12972 41064 ft 517 kts 124°
2026-05-08 02:30 26.71198 -77.06236 41068 ft 517 kts 124°
2026-05-08 02:30 26.67261 -76.99548 41067 ft 517 kts 124°
2026-05-08 02:31 26.63301 -76.92829 41067 ft 517 kts 124°
2026-05-08 02:31 26.59334 -76.86109 41068 ft 517 kts 124°
2026-05-08 02:32 26.55366 -76.79400 41058 ft 517 kts 124°
2026-05-08 02:32 26.51425 -76.72744 41067 ft 516 kts 124°
2026-05-08 02:33 26.47468 -76.66073 41071 ft 515 kts 124°
2026-05-08 02:33 26.43495 -76.59384 41074 ft 515 kts 124°
2026-05-08 02:34 26.39529 -76.52717 41073 ft 515 kts 124°
2026-05-08 02:34 26.35576 -76.46082 41071 ft 515 kts 124°
2026-05-08 02:35 26.31597 -76.39414 41074 ft 515 kts 124°
2026-05-08 02:35 26.27641 -76.32792 41075 ft 515 kts 124°
2026-05-08 02:36 26.23663 -76.26144 41075 ft 515 kts 124°
2026-05-08 02:36 26.19674 -76.19487 41063 ft 515 kts 124°
2026-05-08 02:37 26.15711 -76.12883 41079 ft 514 kts 124°
2026-05-08 02:37 26.11735 -76.06267 41078 ft 514 kts 124°
2026-05-08 02:38 26.07749 -75.99644 41078 ft 514 kts 124°
2026-05-08 02:38 26.03766 -75.93035 41081 ft 514 kts 124°
2026-05-08 02:39 25.99806 -75.86471 41084 ft 514 kts 124°
2026-05-08 02:39 25.95815 -75.79866 41082 ft 514 kts 124°
2026-05-08 02:40 25.91846 -75.73306 41082 ft 513 kts 124°
2026-05-08 02:40 25.87859 -75.66728 41083 ft 513 kts 124°
2026-05-08 02:41 25.83863 -75.60143 41075 ft 513 kts 124°
2026-05-08 02:41 25.79875 -75.53583 41086 ft 512 kts 124°
2026-05-08 02:42 25.75880 -75.47018 41089 ft 512 kts 124°
2026-05-08 02:42 25.71917 -75.40518 41089 ft 512 kts 124°
2026-05-08 02:43 25.67923 -75.33975 41089 ft 511 kts 124°
2026-05-08 02:43 25.63926 -75.27435 41089 ft 511 kts 124°
2026-05-08 02:44 25.59928 -75.20904 41089 ft 511 kts 124°
2026-05-08 02:44 25.55958 -75.14424 41087 ft 511 kts 124°
2026-05-08 02:45 25.51946 -75.07884 41089 ft 511 kts 124°
2026-05-08 02:45 25.47966 -75.01407 41080 ft 511 kts 124°
2026-05-08 02:46 25.43967 -74.94910 41091 ft 509 kts 124°
2026-05-08 02:46 25.39968 -74.88422 41091 ft 509 kts 124°
2026-05-08 02:47 25.35999 -74.81991 41091 ft 509 kts 124°
2026-05-08 02:47 25.31993 -74.75510 41091 ft 509 kts 124°
2026-05-08 02:48 25.28018 -74.69087 41094 ft 509 kts 124°
2026-05-08 02:48 25.24013 -74.62625 41091 ft 509 kts 124°
2026-05-08 02:49 25.20003 -74.56163 41091 ft 509 kts 124°
2026-05-08 02:49 25.16021 -74.49757 41091 ft 509 kts 124°
2026-05-08 02:50 25.12678 -74.44385 41094 ft 509 kts 124°
2026-05-08 02:50 25.08016 -74.36902 41094 ft 508 kts 124°
2026-05-08 02:51 25.04686 -74.31565 41094 ft 507 kts 124°
2026-05-08 02:51 25.00681 -74.25152 41094 ft 507 kts 124°
2026-05-08 02:52 24.96697 -74.18783 41097 ft 506 kts 124°
2026-05-08 02:52 24.92688 -74.12381 41099 ft 506 kts 124°
2026-05-08 02:53 24.88679 -74.05989 41097 ft 506 kts 124°
2026-05-08 02:53 24.84690 -73.99637 41098 ft 506 kts 124°
2026-05-08 02:54 24.80693 -73.93282 41099 ft 506 kts 124°
2026-05-08 02:54 24.76678 -73.86906 41099 ft 506 kts 124°
2026-05-08 02:55 24.70651 -73.77349 41099 ft 505 kts 124°
2026-05-08 02:56 24.66667 -73.71041 41099 ft 505 kts 124°
2026-05-08 02:56 24.62654 -73.64698 41104 ft 505 kts 124°
2026-05-08 02:57 24.58633 -73.58351 41099 ft 504 kts 124°
2026-05-08 02:57 24.54770 -73.51957 41099 ft 504 kts 121°
2026-05-08 02:58 24.51194 -73.45332 41099 ft 504 kts 119°
2026-05-08 02:58 24.47692 -73.38710 41099 ft 504 kts 119°
2026-05-08 02:59 24.44139 -73.32068 41099 ft 504 kts 120°
2026-05-08 02:59 24.40561 -73.25450 41100 ft 503 kts 120°
2026-05-08 03:00 24.36977 -73.18849 41096 ft 503 kts 120°
2026-05-08 03:00 24.33414 -73.12296 41102 ft 502 kts 120°
2026-05-08 03:01 24.29831 -73.05714 41102 ft 502 kts 120°
2026-05-08 03:01 24.26245 -72.99134 41099 ft 502 kts 120°
2026-05-08 03:02 24.22671 -72.92584 41102 ft 502 kts 119°
2026-05-08 03:02 24.19076 -72.86003 41099 ft 503 kts 119°
2026-05-08 03:03 24.15477 -72.79425 41102 ft 503 kts 119°
2026-05-08 03:03 24.11887 -72.72871 41103 ft 503 kts 119°
2026-05-08 03:04 24.08305 -72.66341 41101 ft 503 kts 119°
2026-05-08 03:04 24.04696 -72.59771 41106 ft 503 kts 119°
2026-05-08 03:05 24.01079 -72.53197 41100 ft 504 kts 119°
2026-05-08 03:05 23.97476 -72.46654 41097 ft 504 kts 119°
2026-05-08 03:06 23.93851 -72.40083 41100 ft 503 kts 119°
2026-05-08 03:06 23.90255 -72.33570 41099 ft 503 kts 119°
2026-05-08 03:07 23.86630 -72.27015 41102 ft 503 kts 119°
2026-05-08 03:07 23.83011 -72.20479 41102 ft 504 kts 119°
2026-05-08 03:08 23.79371 -72.13914 41100 ft 504 kts 119°
2026-05-08 03:08 23.75753 -72.07396 41099 ft 504 kts 119°
2026-05-08 03:09 23.72107 -72.00838 41101 ft 504 kts 119°
2026-05-08 03:09 23.68485 -71.94331 41109 ft 504 kts 119°
2026-05-08 03:10 23.64836 -71.87785 41102 ft 504 kts 119°
2026-05-08 03:10 23.61126 -71.81262 41108 ft 506 kts 123°
2026-05-08 03:11 23.56992 -71.75038 41107 ft 507 kts 124°
2026-05-08 03:11 23.52774 -71.68927 41106 ft 507 kts 125°
2026-05-08 03:12 23.48500 -71.62794 41108 ft 507 kts 125°
2026-05-08 03:12 23.44234 -71.56668 41108 ft 507 kts 125°
2026-05-08 03:13 23.39980 -71.50553 41105 ft 507 kts 124°
2026-05-08 03:13 23.35717 -71.44424 41106 ft 507 kts 124°
2026-05-08 03:14 23.31470 -71.38327 41106 ft 507 kts 124°
2026-05-08 03:14 23.27189 -71.32189 41105 ft 507 kts 125°
2026-05-08 03:15 23.22946 -71.26112 41097 ft 507 kts 124°
2026-05-08 03:15 23.18671 -71.19998 41106 ft 507 kts 124°
2026-05-08 03:16 23.14397 -71.13891 41103 ft 507 kts 124°
2026-05-08 03:16 23.10127 -71.07798 41101 ft 507 kts 124°
2026-05-08 03:17 23.05870 -71.01730 41103 ft 507 kts 124°
2026-05-08 03:17 23.01589 -70.95636 41111 ft 507 kts 124°
2026-05-08 03:18 22.97308 -70.89549 41103 ft 507 kts 124°
2026-05-08 03:18 22.93024 -70.83466 41103 ft 506 kts 124°
2026-05-08 03:19 22.88740 -70.77397 41103 ft 506 kts 124°
2026-05-08 03:19 22.84472 -70.71364 41101 ft 506 kts 124°
2026-05-08 03:20 22.80205 -70.65340 41104 ft 505 kts 124°
2026-05-08 03:20 22.75918 -70.59294 41100 ft 505 kts 124°
2026-05-08 03:21 22.71628 -70.53250 41111 ft 505 kts 124°
2026-05-08 03:21 22.67348 -70.47228 41101 ft 504 kts 124°
2026-05-08 03:22 22.63085 -70.41237 41101 ft 504 kts 124°
2026-05-08 03:22 22.58796 -70.35214 41099 ft 504 kts 124°
2026-05-08 03:23 22.54519 -70.29218 41102 ft 504 kts 124°
2026-05-08 03:23 22.50220 -70.23195 41101 ft 504 kts 124°
2026-05-08 03:24 22.45953 -70.17227 41102 ft 503 kts 124°
2026-05-08 03:24 22.41660 -70.11228 41102 ft 503 kts 124°
2026-05-08 03:25 22.37401 -70.05282 41101 ft 503 kts 124°
2026-05-08 03:25 22.33103 -69.99289 41099 ft 503 kts 124°
2026-05-08 03:26 22.28842 -69.93353 41102 ft 503 kts 124°
2026-05-08 03:26 22.24547 -69.87379 41099 ft 503 kts 124°
2026-05-08 03:27 22.20247 -69.81404 41105 ft 502 kts 124°
2026-05-08 03:27 22.15986 -69.75491 41098 ft 502 kts 124°
2026-05-08 03:28 22.11685 -69.69527 41098 ft 502 kts 124°
2026-05-08 03:28 22.07419 -69.63619 41101 ft 502 kts 124°
2026-05-08 03:29 22.03127 -69.57681 41101 ft 502 kts 124°
2026-05-08 03:29 21.98824 -69.51736 41112 ft 501 kts 124°
2026-05-08 03:30 21.92421 -69.42901 41103 ft 499 kts 124°
2026-05-08 03:31 21.83866 -69.31118 41100 ft 499 kts 124°
2026-05-08 03:32 21.77458 -69.22308 41104 ft 499 kts 124°
2026-05-08 03:32 21.73171 -69.16422 41104 ft 499 kts 124°
2026-05-08 03:33 21.68915 -69.10586 41106 ft 498 kts 124°
2026-05-08 03:33 21.64634 -69.04722 41106 ft 498 kts 124°
2026-05-08 03:34 21.60344 -68.98851 41109 ft 498 kts 124°
2026-05-08 03:34 21.56084 -68.93028 41085 ft 498 kts 124°
2026-05-08 03:35 21.51794 -68.87170 41108 ft 498 kts 124°
2026-05-08 03:35 21.47647 -68.81513 41101 ft 499 kts 124°
2026-05-08 03:36 21.43335 -68.75636 41096 ft 500 kts 124°
2026-05-08 03:36 21.39044 -68.69795 41104 ft 500 kts 124°
2026-05-08 03:37 21.34723 -68.63920 41107 ft 500 kts 124°
2026-05-08 03:37 21.30444 -68.58110 41000 ft 497 kts 124°
2026-05-08 03:37 21.28295 -68.55193 40758 ft 498 kts 124°
2026-05-08 03:38 21.26141 -68.52271 40513 ft 499 kts 124°
2026-05-08 03:38 21.23984 -68.49344 40278 ft 501 kts 124°
2026-05-08 03:38 21.21812 -68.46400 40025 ft 502 kts 124°
2026-05-08 03:38 21.19647 -68.43467 39666 ft 501 kts 124°
2026-05-08 03:39 21.17485 -68.40542 39041 ft 500 kts 124°
2026-05-08 03:39 21.15347 -68.37650 38255 ft 501 kts 124°
2026-05-08 03:39 21.13173 -68.34709 37281 ft 505 kts 124°
2026-05-08 03:39 21.10976 -68.31736 36237 ft 510 kts 125°
2026-05-08 03:40 21.08759 -68.28736 35139 ft 517 kts 126°
2026-05-08 03:40 21.06513 -68.25702 34004 ft 524 kts 126°
2026-05-08 03:40 21.04235 -68.22628 32779 ft 522 kts 126°
2026-05-08 03:40 21.02015 -68.19639 32173 ft 518 kts 126°
2026-05-08 03:41 20.99773 -68.16622 31943 ft 515 kts 126°
2026-05-08 03:41 20.97538 -68.13615 31706 ft 513 kts 126°
2026-05-08 03:41 20.95315 -68.10624 31462 ft 511 kts 126°
2026-05-08 03:41 20.93130 -68.07683 31236 ft 510 kts 126°
2026-05-08 03:42 20.90917 -68.04705 31004 ft 509 kts 126°
2026-05-08 03:42 20.88717 -68.01747 30770 ft 508 kts 126°
2026-05-08 03:42 20.86518 -67.98790 30532 ft 507 kts 126°
2026-05-08 03:42 20.84338 -67.95827 30304 ft 506 kts 126°
2026-05-08 03:43 20.82176 -67.92861 30064 ft 505 kts 125°
2026-05-08 03:43 20.80021 -67.89890 29783 ft 505 kts 125°
2026-05-08 03:43 20.77888 -67.86948 29516 ft 505 kts 126°
2026-05-08 03:43 20.75738 -67.83984 29280 ft 505 kts 126°
2026-05-08 03:44 20.73585 -67.81021 29005 ft 503 kts 126°
2026-05-08 03:44 20.71436 -67.78067 28739 ft 502 kts 126°
2026-05-08 03:44 20.69295 -67.75129 28487 ft 500 kts 126°
2026-05-08 03:44 20.67157 -67.72197 28229 ft 498 kts 126°
2026-05-08 03:45 20.65028 -67.69280 27980 ft 497 kts 126°
2026-05-08 03:45 20.62932 -67.66410 27735 ft 495 kts 126°
2026-05-08 03:45 20.60817 -67.63515 27488 ft 494 kts 126°
2026-05-08 03:45 20.58703 -67.60623 27246 ft 493 kts 126°
2026-05-08 03:46 20.56598 -67.57743 26997 ft 491 kts 126°
2026-05-08 03:46 20.54498 -67.54873 26757 ft 490 kts 126°
2026-05-08 03:46 20.52407 -67.52016 26523 ft 479 kts 126°
2026-05-08 03:46 20.50375 -67.49244 26300 ft 475 kts 126°
2026-05-08 03:47 20.48320 -67.46438 26054 ft 484 kts 126°
2026-05-08 03:47 20.46948 -67.44564 25906 ft 485 kts 126°
2026-05-08 03:47 20.44217 -67.40839 25597 ft 476 kts 127°
2026-05-08 03:47 20.42173 -67.38054 25359 ft 472 kts 126°
2026-05-08 03:48 20.40839 -67.36238 25219 ft 470 kts 126°
2026-05-08 03:48 20.38799 -67.33458 24984 ft 479 kts 127°
2026-05-08 03:48 20.36741 -67.30654 24755 ft 480 kts 127°
2026-05-08 03:48 20.34683 -67.27853 24535 ft 480 kts 126°
2026-05-08 03:49 20.32625 -67.25052 24314 ft 480 kts 127°
2026-05-08 03:49 20.30563 -67.22250 24095 ft 480 kts 126°
2026-05-08 03:49 20.28501 -67.19448 23886 ft 480 kts 127°
2026-05-08 03:49 20.26463 -67.16679 23667 ft 479 kts 127°
2026-05-08 03:50 20.24406 -67.13885 23399 ft 476 kts 127°
2026-05-08 03:50 20.22362 -67.11113 23151 ft 474 kts 127°
2026-05-08 03:50 20.20326 -67.08355 22899 ft 472 kts 127°
2026-05-08 03:50 20.18298 -67.05606 22640 ft 471 kts 127°
2026-05-08 03:51 20.16276 -67.02867 22381 ft 469 kts 127°
2026-05-08 03:51 20.14271 -67.00152 22135 ft 462 kts 127°
2026-05-08 03:51 20.12316 -66.97506 21893 ft 459 kts 127°
2026-05-08 03:51 20.10337 -66.94828 21635 ft 459 kts 127°
2026-05-08 03:52 20.08361 -66.92156 21383 ft 465 kts 127°
2026-05-08 03:52 20.06372 -66.89465 21173 ft 461 kts 127°
2026-05-08 03:52 20.04398 -66.86799 20938 ft 453 kts 127°
2026-05-08 03:52 20.02453 -66.84172 20690 ft 450 kts 127°
2026-05-08 03:53 20.00537 -66.81542 20460 ft 449 kts 125°
2026-05-08 03:53 19.98829 -66.78747 20219 ft 450 kts 120°
2026-05-08 03:53 19.97265 -66.75896 19987 ft 450 kts 118°
2026-05-08 03:53 19.95750 -66.72975 19756 ft 449 kts 117°
2026-05-08 03:54 19.94282 -66.70048 19533 ft 448 kts 116°
2026-05-08 03:54 19.92832 -66.67116 19308 ft 446 kts 117°
2026-05-08 03:54 19.91395 -66.64199 19079 ft 445 kts 116°
2026-05-08 03:54 19.89960 -66.61292 18860 ft 444 kts 116°
2026-05-08 03:55 19.88538 -66.58426 18635 ft 444 kts 116°
2026-05-08 03:55 19.87097 -66.55530 18426 ft 442 kts 117°
2026-05-08 03:55 19.85653 -66.52639 18170 ft 440 kts 116°
2026-05-08 03:55 19.84216 -66.49769 17921 ft 438 kts 117°
2026-05-08 03:56 19.82802 -66.46947 17666 ft 436 kts 117°
2026-05-08 03:56 19.81375 -66.44103 17411 ft 435 kts 117°
2026-05-08 03:56 19.79949 -66.41261 17167 ft 434 kts 116°
2026-05-08 03:56 19.78533 -66.38442 16910 ft 426 kts 116°
2026-05-08 03:57 19.77151 -66.35691 16677 ft 419 kts 117°
2026-05-08 03:57 19.75777 -66.32956 16432 ft 419 kts 117°
2026-05-08 03:57 19.74423 -66.30259 16191 ft 418 kts 117°
2026-05-08 03:57 19.73050 -66.27528 15946 ft 413 kts 116°
2026-05-08 03:58 19.71729 -66.24904 15723 ft 393 kts 116°
2026-05-08 03:58 19.70463 -66.22394 15492 ft 377 kts 116°
2026-05-08 03:58 19.69224 -66.19931 15253 ft 388 kts 116°
2026-05-08 03:58 19.67938 -66.17370 15013 ft 390 kts 116°
2026-05-08 03:59 19.66655 -66.14820 14773 ft 403 kts 116°
2026-05-08 03:59 19.65328 -66.12182 14551 ft 405 kts 116°
2026-05-08 03:59 19.63994 -66.09536 14318 ft 405 kts 116°
2026-05-08 03:59 19.62665 -66.06904 14082 ft 404 kts 116°
2026-05-08 04:00 19.61341 -66.04282 13861 ft 403 kts 116°
2026-05-08 04:00 19.60017 -66.01662 13612 ft 401 kts 116°
2026-05-08 04:00 19.58714 -65.99084 13353 ft 399 kts 116°
2026-05-08 04:00 19.57407 -65.96499 13093 ft 397 kts 117°
2026-05-08 04:01 19.56103 -65.93921 12842 ft 395 kts 117°
2026-05-08 04:01 19.54804 -65.91352 12593 ft 393 kts 116°
2026-05-08 04:01 19.53510 -65.88796 12337 ft 391 kts 117°
2026-05-08 04:01 19.52226 -65.86260 12099 ft 389 kts 116°
2026-05-08 04:02 19.50965 -65.83769 11847 ft 387 kts 117°
2026-05-08 04:02 19.49691 -65.81256 11600 ft 385 kts 116°
2026-05-08 04:02 19.48423 -65.78754 11367 ft 383 kts 117°
2026-05-08 04:02 19.47166 -65.76275 11140 ft 381 kts 117°
2026-05-08 04:03 19.45925 -65.73829 10893 ft 379 kts 117°
2026-05-08 04:03 19.43437 -65.68929 10448 ft 375 kts 116°
2026-05-08 04:03 19.42193 -65.66479 10479 ft 375 kts 117°
2026-05-08 04:04 19.40957 -65.64047 10492 ft 374 kts 117°
2026-05-08 04:04 19.39739 -65.61651 10491 ft 374 kts 117°
2026-05-08 04:04 19.38504 -65.59221 10487 ft 374 kts 116°
2026-05-08 04:04 19.37267 -65.56791 10488 ft 374 kts 117°
2026-05-08 04:05 19.36035 -65.54371 10485 ft 374 kts 116°
2026-05-08 04:05 19.34799 -65.51944 10484 ft 374 kts 116°
2026-05-08 04:05 19.33561 -65.49514 10488 ft 374 kts 116°
2026-05-08 04:05 19.32325 -65.47089 10486 ft 374 kts 116°
2026-05-08 04:06 19.31107 -65.44700 10485 ft 373 kts 117°
2026-05-08 04:06 19.29867 -65.42269 10485 ft 374 kts 116°
2026-05-08 04:06 19.28627 -65.39840 10485 ft 374 kts 117°
2026-05-08 04:06 19.27388 -65.37415 10485 ft 374 kts 116°
2026-05-08 04:07 19.26167 -65.35026 10483 ft 374 kts 116°
2026-05-08 04:07 19.24929 -65.32601 10485 ft 374 kts 117°
2026-05-08 04:07 19.23689 -65.30175 10485 ft 374 kts 116°
2026-05-08 04:07 19.22463 -65.27779 10483 ft 374 kts 117°
2026-05-08 04:08 19.21227 -65.25362 10481 ft 374 kts 117°
2026-05-08 04:08 19.19989 -65.22944 10482 ft 373 kts 117°
2026-05-08 04:08 19.18748 -65.20521 10482 ft 374 kts 116°
2026-05-08 04:08 19.17506 -65.18096 10479 ft 374 kts 116°
2026-05-08 04:09 19.16267 -65.15678 10482 ft 373 kts 117°
2026-05-08 04:09 19.15029 -65.13262 10482 ft 373 kts 117°
2026-05-08 04:09 19.13789 -65.10845 10482 ft 374 kts 117°
2026-05-08 04:09 19.12563 -65.08456 10482 ft 374 kts 116°
2026-05-08 04:10 19.11323 -65.06042 10482 ft 374 kts 117°
2026-05-08 04:10 19.10080 -65.03621 10482 ft 374 kts 116°
2026-05-08 04:10 19.08836 -65.01200 10476 ft 374 kts 116°
2026-05-08 04:10 19.07592 -64.98777 10482 ft 374 kts 116°
2026-05-08 04:11 19.06362 -64.96385 10480 ft 374 kts 117°
2026-05-08 04:11 19.05120 -64.93969 10476 ft 373 kts 116°
2026-05-08 04:11 19.03876 -64.91552 10478 ft 374 kts 117°
2026-05-08 04:11 19.02632 -64.89135 10471 ft 374 kts 116°
2026-05-08 04:12 19.01388 -64.86720 10478 ft 374 kts 116°
2026-05-08 04:12 19.00143 -64.84303 10480 ft 374 kts 116°
2026-05-08 04:12 18.98915 -64.81921 10479 ft 374 kts 117°
2026-05-08 04:12 18.97672 -64.79510 10481 ft 374 kts 116°
2026-05-08 04:13 18.96423 -64.77088 10479 ft 374 kts 117°
2026-05-08 04:13 18.95176 -64.74671 10480 ft 374 kts 117°
2026-05-08 04:13 18.93931 -64.72259 10475 ft 374 kts 117°
2026-05-08 04:13 18.92700 -64.69875 10475 ft 374 kts 116°
2026-05-08 04:14 18.91447 -64.67450 10475 ft 374 kts 116°
2026-05-08 04:14 18.90199 -64.65036 10468 ft 374 kts 117°
2026-05-08 04:14 18.88951 -64.62622 10473 ft 374 kts 117°
2026-05-08 04:14 18.87704 -64.60211 10468 ft 374 kts 117°
2026-05-08 04:15 18.86471 -64.57828 10473 ft 374 kts 116°
2026-05-08 04:15 18.85217 -64.55406 10475 ft 374 kts 117°
2026-05-08 04:15 18.83965 -64.52987 10468 ft 374 kts 116°
2026-05-08 04:15 18.82716 -64.50576 10474 ft 374 kts 116°
2026-05-08 04:16 18.81481 -64.48192 10471 ft 374 kts 117°
2026-05-08 04:16 18.80232 -64.45784 10472 ft 374 kts 116°
2026-05-08 04:16 18.78980 -64.43370 10471 ft 374 kts 117°
2026-05-08 04:16 18.77728 -64.40958 10472 ft 374 kts 117°
2026-05-08 04:17 18.76476 -64.38545 10471 ft 374 kts 116°
2026-05-08 04:17 18.75223 -64.36132 10470 ft 374 kts 116°
2026-05-08 04:17 18.73989 -64.33756 10465 ft 374 kts 116°
2026-05-08 04:17 18.72737 -64.31346 10465 ft 374 kts 117°
2026-05-08 04:18 18.71484 -64.28938 10469 ft 374 kts 117°
2026-05-08 04:18 18.70228 -64.26523 10466 ft 374 kts 117°
2026-05-08 04:18 18.68977 -64.24118 10467 ft 374 kts 117°
2026-05-08 04:18 18.67723 -64.21709 10462 ft 374 kts 117°
2026-05-08 04:19 18.66474 -64.19310 10468 ft 374 kts 116°
2026-05-08 04:19 18.65215 -64.16895 10469 ft 374 kts 116°
2026-05-08 04:19 18.63980 -64.14524 10462 ft 374 kts 117°
2026-05-08 04:19 18.62724 -64.12116 10465 ft 374 kts 117°
2026-05-08 04:20 18.61467 -64.09704 10465 ft 374 kts 117°
2026-05-08 04:20 18.60212 -64.07297 10465 ft 374 kts 117°
2026-05-08 04:20 18.58956 -64.04892 10472 ft 374 kts 117°
2026-05-08 04:20 18.57696 -64.02479 10465 ft 374 kts 116°
2026-05-08 04:21 18.56453 -64.00100 10470 ft 374 kts 116°
2026-05-08 04:21 18.55198 -63.97697 10468 ft 374 kts 117°
2026-05-08 04:21 18.53937 -63.95284 10468 ft 374 kts 116°
2026-05-08 04:21 18.52678 -63.92876 10468 ft 374 kts 117°
2026-05-08 04:22 18.51431 -63.90494 10427 ft 373 kts 117°
2026-05-08 04:22 18.50181 -63.88106 10189 ft 372 kts 117°
2026-05-08 04:22 18.48939 -63.85734 9548 ft 365 kts 117°
2026-05-08 04:22 18.47719 -63.83407 8773 ft 359 kts 116°
2026-05-08 04:23 18.46523 -63.81125 7960 ft 354 kts 117°
2026-05-08 04:23 18.45352 -63.78890 7157 ft 350 kts 117°
2026-05-08 04:23 18.44186 -63.76667 6418 ft 344 kts 117°
2026-05-08 04:23 18.43034 -63.74471 5748 ft 332 kts 117°
2026-05-08 04:24 18.41979 -63.72467 5434 ft 297 kts 117°
2026-05-08 04:24 18.41031 -63.70667 5179 ft 267 kts 117°
2026-05-08 04:24 18.40151 -63.68991 4771 ft 260 kts 116°
2026-05-08 04:24 18.39246 -63.67330 4395 ft 264 kts 121°
2026-05-08 04:25 18.38078 -63.65828 4267 ft 266 kts 131°
2026-05-08 04:25 18.36764 -63.64460 4140 ft 266 kts 134°
2026-05-08 04:25 18.35413 -63.63123 4034 ft 266 kts 134°
2026-05-08 04:25 18.34065 -63.61799 3891 ft 265 kts 134°
2026-05-08 04:26 18.32719 -63.60473 3779 ft 264 kts 134°
2026-05-08 04:26 18.31397 -63.59168 3677 ft 263 kts 134°
2026-05-08 04:26 18.30068 -63.57851 3535 ft 262 kts 134°
2026-05-08 04:26 18.28738 -63.56534 3426 ft 262 kts 134°
2026-05-08 04:27 18.27415 -63.55222 3302 ft 261 kts 134°
2026-05-08 04:27 18.26095 -63.53913 3175 ft 260 kts 134°
2026-05-08 04:27 18.24773 -63.52601 3090 ft 261 kts 134°
2026-05-08 04:27 18.23451 -63.51290 3069 ft 261 kts 134°
2026-05-08 04:28 18.22139 -63.49990 3063 ft 261 kts 134°
2026-05-08 04:28 18.20811 -63.48675 3071 ft 261 kts 134°
2026-05-08 04:28 18.19495 -63.47370 3071 ft 259 kts 134°
2026-05-08 04:28 18.18202 -63.46090 3070 ft 258 kts 134°
2026-05-08 04:29 18.16891 -63.44790 3070 ft 258 kts 134°
2026-05-08 04:29 18.15583 -63.43495 3074 ft 259 kts 134°
2026-05-08 04:29 18.14272 -63.42197 3070 ft 259 kts 134°
2026-05-08 04:29 18.12956 -63.40894 3070 ft 261 kts 134°
2026-05-08 04:30 18.11629 -63.39582 3068 ft 260 kts 134°
2026-05-08 04:30 18.10315 -63.38282 3071 ft 258 kts 134°
2026-05-08 04:30 18.09022 -63.37004 3074 ft 258 kts 134°
2026-05-08 04:30 18.07714 -63.35709 3073 ft 258 kts 134°
2026-05-08 04:31 18.06396 -63.34406 3075 ft 259 kts 134°
2026-05-08 04:31 18.05079 -63.33104 3074 ft 260 kts 134°
2026-05-08 04:31 18.03774 -63.31815 3074 ft 253 kts 134°
2026-05-08 04:31 18.02555 -63.30543 3074 ft 246 kts 127°
2026-05-08 04:32 18.01759 -63.29003 2861 ft 238 kts 102°
2026-05-08 04:32 18.01675 -63.27281 2436 ft 237 kts 84°
2026-05-08 04:32 18.01892 -63.25592 2226 ft 225 kts 81°
2026-05-08 04:32 18.02145 -63.24027 2177 ft 212 kts 81°
2026-05-08 04:33 18.02387 -63.22530 2089 ft 205 kts 80°
2026-05-08 04:33 18.02617 -63.21059 1707 ft 205 kts 81°
2026-05-08 04:33 18.02841 -63.19570 1309 ft 207 kts 80°
2026-05-08 04:33 18.03058 -63.18079 1144 ft 206 kts 81°
2026-05-08 04:34 18.03261 -63.16686 988 ft 181 kts 82°
2026-05-08 04:34 18.03438 -63.15446 694 ft 161 kts 79°
2026-05-08 04:34 18.03610 -63.14336 450 ft 148 kts 81°
2026-05-08 04:34 18.03728 -63.13362 306 ft 125 kts 80°
2026-05-08 04:35 18.03858 -63.12498 140 ft 115 kts 80°
2026-05-08 04:35 18.03979 -63.11668 31 ft 114 kts 80°
2026-05-08 04:35 18.04043 -63.11237 26 ft 51 kts 82°
2026-05-08 04:35 18.04074 -63.11043 27 ft 17 kts 71°
2026-05-08 04:36 18.04138 -63.10990 30 ft 1 kts
2026-05-08 04:36 18.04161 -63.11015 30 ft 8 kts 293°
2026-05-08 04:36 18.04164 -63.11038 28 ft 0 kts 275°
2026-05-08 04:36 18.04164 -63.11033 28 ft 1 kts 278°
2026-05-08 04:37 18.04180 -63.11085 26 ft 15 kts 314°
2026-05-08 04:37 18.04235 -63.11122 29 ft 6 kts 328°